Wind_Speed
20 14 15 11 15 20 13 11 9 12 14 11 13 14 14 12 10 11 11 12 13 14 13 14 16 19 21 22 24 26 28 32 35 36 32 32 32 29 29 22 10 4 10
22 15 12 17 16 21 13 12 11 14 16 16 14 15 16 13 9 11 8 11 11 14 13 12 13 15 17 21 26 25 24 25 30 33 33 33 32 33 34 30 24 9 6
25 16 24 18 14 18 14 13 14 16 20 20 16 17 16 14 13 12 9 11 8 11 11 11 10 10 15 19 22 21 22 21 23 28 30 34 32 30 33 34 31 28 11
29 28 27 23 22 23 18 17 16 17 24 22 20 18 18 16 14 13 10 10 8 8 7 8 8 7 10 16 18 17 19 21 20 22 27 30 34 32 32 34 35 37 34
34 38 33 26 24 25 21 20 18 19 26 26 24 21 18 17 13 12 11 9 9 7 7 5 7 5 7 11 14 16 16 20 19 21 23 25 30 32 31 32 35 38 40
41 39 36 28 21 21 24 24 20 22 23 28 27 24 22 18 14 13 13 10 8 8 5 4 5 2 4 8 12 13 16 17 18 21 23 23 25 27 29 31 33 32 32
47 44 40 33 25 19 26 21 19 24 23 29 28 28 26 24 19 16 15 14 10 9 7 4 3 1 2 5 8 11 13 14 15 20 21 22 21 24 27 28 28 31 33
54 48 43 39 33 27 26 23 18 24 21 24 31 30 30 27 24 21 17 16 14 10 6 3 3 1 2 3 4 6 11 13 12 16 17 20 21 22 23 25 25 26 27
57 54 47 40 37 38 34 27 20 24 22 22 29 33 32 31 28 24 21 18 15 12 10 6 5 3 3 3 2 4 7 11 11 10 13 14 16 18 21 22 23 24 24
49 56 50 38 38 36 37 33 27 29 26 24 26 30 33 34 32 28 26 22 18 15 13 10 10 8 6 4 3 3 4 6 9 9 8 9 12 15 17 18 19 20 20
43 44 45 39 34 41 40 36 28 28 32 30 28 29 33 33 33 33 31 27 23 20 18 15 14 11 10 5 4 4 4 5 5 7 9 8 9 10 12 15 16 17 18
50 50 46 43 46 42 37 36 32 31 32 25 28 29 30 34 34 35 33 31 28 25 22 22 19 15 13 10 7 7 6 6 6 6 8 9 10 11 11 13 15 17 19
52 52 48 47 47 41 40 37 35 30 32 25 25 28 29 31 33 35 36 34 32 29 27 26 23 20 16 15 14 12 10 11 12 10 9 10 11 12 13 14 16 18 18
59 52 59 53 52 46 43 39 36 31 31 28 26 27 30 29 32 35 35 34 34 33 30 28 25 23 21 18 16 15 13 14 12 11 12 13 14 14 15 16 16 17 18
66 58 59 64 52 47 47 47 41 36 34 32 28 28 26 22 22 31 36 36 35 33 30 29 27 25 22 19 17 18 16 14 13 12 14 15 16 17 17 18 19 20 21
74 69 66 63 55 53 52 50 44 40 39 39 35 30 25 26 23 21 27 32 33 32 31 28 26 24 21 18 16 15 16 16 16 16 16 16 17 18 19 20 23 22 22
80 76 72 64 60 62 59 58 51 48 45 40 38 35 32 29 26 24 21 23 26 25 27 26 22 21 19 18 18 17 16 17 18 18 17 17 19 20 21 23 24 22 22
85 82 79 72 63 68 69 67 60 53 49 45 43 41 37 34 30 28 27 26 26 27 27 26 25 23 20 18 18 17 18 18 17 18 19 19 20 21 22 23 21 20 18
89 87 87 85 84 77 71 72 67 59 54 51 50 44 41 38 35 34 33 29 28 29 31 29 27 25 21 20 20 19 20 19 18 17 17 17 19 21 23 22 21 20 19
92 93 91 93 89 83 82 80 74 69 63 56 53 50 46 42 39 37 36 36 32 29 25 25 27 26 22 22 20 19 17 16 14 14 15 17 16 17 20 22 22 23 20
99 97 97 97 97 93 85 88 81 78 72 66 58 57 50 46 45 42 40 39 39 31 27 23 24 23 20 19 18 17 18 17 15 16 16 16 17 17 19 23 23 22 23
105 101 99 99 102 99 95 92 86 81 80 75 67 64 57 49 48 47 46 43 44 37 32 30 29 28 25 22 21 20 22 18 17 16 15 17 18 18 19 22 23 20 22
109 107 102 101 98 104 101 96 91 82 83 85 78 68 65 59 53 47 46 45 48 44 40 34 34 33 30 29 28 26 26 23 21 19 16 17 19 20 23 22 23 22 23
114 111 108 104 103 106 106 101 100 86 88 88 85 76 69 64 59 55 54 53 51 47 47 41 38 36 31 33 33 29 28 27 27 24 20 18 22 23 25 25 23 22 24
119 117 114 111 109 108 108 106 103 94 87 89 88 84 78 68 65 61 58 57 57 48 53 47 43 39 34 36 35 31 30 30 29 27 27 27 27 26 27 30 29 27 28
122 120 117 117 117 113 111 110 109 100 93 91 83 81 82 74 67 61 61 62 59 52 52 55 51 48 43 39 40 34 33 31 29 29 32 33 33 33 33 33 34 32 31
Wind_Direction
262 295 288 306 310 307 290 286 222 215 206 196 196 183 176 165 161 127 112 102 88 71 74 71 72 63 60 54 56 52 51 49 48 46 42 42 42 50 48 50 57 159 154
260 258 257 286 297 300 284 265 235 215 206 211 206 202 191 181 176 138 133 118 95 73 81 77 76 62 54 54 54 51 51 49 50 47 45 45 46 53 52 52 56 79 149
255 242 250 281 305 302 282 253 233 211 211 209 207 204 192 184 167 152 162 137 125 91 85 90 81 62 50 50 54 53 53 49 46 49 47 47 46 47 50 51 56 58 81
244 229 243 268 288 298 279 256 230 214 208 209 214 208 200 197 176 155 176 155 147 121 106 101 93 60 44 44 48 54 56 55 50 50 46 49 50 47 49 55 62 63 66
243 243 252 252 271 284 276 254 232 222 210 208 214 209 205 202 187 174 176 174 168 142 161 111 104 76 38 48 50 53 56 54 53 53 50 47 51 49 49 57 63 64 66
238 246 248 246 268 282 282 255 229 220 217 210 212 212 205 205 198 182 185 184 186 181 166 147 128 102 43 41 46 47 49 52 49 52 50 47 51 50 47 51 56 58 61
238 239 237 238 255 266 281 245 228 226 218 216 211 214 214 213 209 202 192 184 187 190 211 136 139 93 14 30 38 40 44 50 49 54 52 48 50 51 51 47 50 56 57
238 240 241 244 246 251 260 251 220 232 221 224 217 213 218 220 215 213 205 202 196 186 205 185 193 191 285 333 19 31 33 44 47 55 53 50 48 46 49 48 44 46 51
238 239 238 243 239 241 252 252 215 224 218 222 229 220 218 220 221 222 215 213 209 204 202 208 239 225 252 273 317 27 27 33 45 51 47 46 47 42 44 44 44 45 43
238 240 240 234 232 239 255 252 211 210 214 217 223 227 226 222 224 222 224 225 227 228 228 218 237 247 259 287 337 354 4 14 27 34 35 32 28 25 26 33 34 35 35
231 223 233 220 239 245 248 238 221 220 217 212 213 222 225 225 227 227 226 229 233 238 240 236 240 251 256 267 303 350 359 344 355 3 9 9 9 5 10 13 16 16 14
221 216 222 218 231 239 235 224 222 219 233 226 215 215 222 221 223 228 233 234 236 241 242 248 250 256 266 278 284 297 317 325 323 318 323 334 341 348 352 353 354 354 352
225 219 212 221 226 230 230 221 221 219 234 242 224 217 216 222 225 225 229 234 240 242 246 251 256 262 269 277 284 293 304 309 313 312 312 306 308 313 318 324 329 333 338
223 221 217 218 222 219 227 227 224 222 229 235 239 229 218 222 222 224 227 231 235 240 244 249 254 260 267 279 278 283 289 296 300 306 313 313 311 310 312 317 321 325 329
223 218 214 212 220 222 224 227 221 218 224 232 232 236 233 228 227 220 227 233 236 241 245 248 251 252 267 272 276 278 281 285 290 295 308 313 313 310 315 317 318 321 323
224 218 217 212 215 220 223 221 218 217 220 222 225 229 227 231 233 231 228 232 236 239 242 246 250 253 255 257 263 272 273 282 292 296 303 306 309 309 313 314 318 323 324
221 220 219 213 215 219 223 222 218 221 224 220 224 228 228 227 229 234 236 237 237 232 235 241 240 237 241 248 257 264 271 279 287 292 295 300 302 303 305 308 315 322 320
222 219 218 215 207 223 220 223 220 216 219 222 222 226 230 232 233 231 239 240 239 239 237 234 239 245 245 250 257 264 270 272 273 279 286 293 298 301 304 307 310 311 315
220 219 217 217 213 218 217 219 218 214 220 224 224 226 225 228 229 232 230 238 240 239 243 254 253 251 250 249 251 256 268 276 280 280 280 283 290 298 301 303 303 299 303
219 220 218 216 218 219 216 219 219 223 224 223 226 225 226 233 244 234 238 239 240 240 245 254 252 252 252 255 257 265 277 286 297 293 293 294 295 294 296 301 300 304 311
220 217 219 216 216 218 218 216 217 221 223 223 224 225 225 230 234 243 233 244 246 237 240 243 248 253 250 252 261 268 276 287 296 297 309 312 314 311 303 301 303 310 310
221 218 216 218 215 218 219 216 216 219 223 222 224 228 229 236 231 239 231 231 242 244 237 240 245 251 254 256 262 265 272 282 289 296 306 311 316 315 307 302 304 310 313
222 220 215 217 217 219 218 218 215 217 220 224 224 226 229 233 232 230 237 240 239 239 237 232 237 247 250 253 255 260 269 280 287 290 298 308 309 306 301 301 302 304 305
224 219 216 212 216 218 219 219 219 217 221 224 221 224 225 230 234 238 235 239 239 241 239 239 238 241 247 255 257 260 267 276 281 288 302 297 292 298 301 302 301 298 295
223 221 217 214 212 215 219 219 220 220 220 226 223 221 224 227 233 235 238 240 235 238 241 246 247 247 249 255 260 262 263 268 278 292 294 292 289 291 294 294 295 299 300
223 222 218 215 213 210 214 217 219 218 219 224 222 224 224 226 229 229 232 229 229 232 238 247 247 242 244 248 256 258 263 270 279 285 285 287 290 291 290 289 290 295 298
Height
10989 10990 10991 10992 10990 10992 10991 10990 10992 10992 10994 10996 10996 10996 10996 10997 10998 10998 10999 10999 11000 10999 10998 10998 10998 10997 10996 10995 10991 10988 10985 10982 10978 10976 10974 10970 10967 10963 10959 10954 10953 10954 10956
10985 10987 10990 10990 10989 10989 10989 10988 10990 10990 10993 10995 10997 10996 10996 10997 10999 10998 11001 11002 11003 11001 11000 11000 11000 11000 11000 10998 10994 10992 10990 10988 10985 10983 10981 10976 10973 10970 10965 10960 10957 10955 10956
10981 10984 10986 10988 10986 10986 10986 10987 10988 10989 10991 10995 10998 10998 10997 10998 10998 10999 11003 11004 11005 11003 11002 11002 11004 11004 11003 11001 10998 10998 10996 10994 10992 10990 10987 10982 10978 10975 10972 10968 10962 10957 10956
10975 10979 10982 10985 10985 10985 10983 10985 10987 10989 10990 10992 10996 10999 10998 10999 10999 11001 11004 11004 11005 11004 11005 11004 11005 11005 11005 11004 11003 11002 11001 10999 10997 10995 10992 10988 10985 10982 10979 10975 10969 10966 10961
10969 10972 10977 10982 10982 10981 10981 10983 10984 10988 10990 10991 10994 10998 10999 10999 11000 11001 11003 11004 11005 11006 11008 11006 11005 11007 11007 11006 11006 11005 11004 11002 11001 10999 10996 10994 10990 10988 10986 10982 10979 10973 10969
10965 10970 10972 10976 10979 10978 10979 10981 10981 10985 10987 10990 10992 10995 10998 10998 11000 11002 11003 11005 11006 11007 11008 11007 11007 11008 11008 11007 11007 11007 11006 11004 11003 11000 10999 10997 10995 10993 10992 10989 10984 10981 10979
10957 10961 10967 10972 10975 10976 10977 10977 10979 10982 10984 10987 10990 10993 10996 10998 10999 11002 11003 11004 11005 11006 11008 11007 11007 11008 11008 11008 11009 11008 11007 11006 11005 11002 11002 11001 11000 10998 10996 10994 10991 10989 10986
10948 10955 10963 10966 10970 10972 10973 10975 10976 10980 10981 10985 10988 10990 10993 10996 10999 11001 11002 11003 11003 11004 11007 11007 11007 11008 11008 11009 11010 11009 11008 11008 11007 11005 11005 11004 11003 11002 10999 10998 10997 10994 10992
10941 10946 10956 10961 10963 10966 10969 10973 10971 10975 10977 10981 10985 10987 10989 10993 10997 10999 11000 11001 11002 11003 11004 11006 11007 11007 11007 11008 11009 11009 11009 11008 11007 11007 11007 11006 11005 11004 11003 11001 11000 10998 10997
10934 10938 10949 10956 10958 10963 10964 10968 10966 10967 10972 10976 10980 10984 10988 10990 10992 10995 10998 11000 11000 11001 11002 11003 11005 11006 11007 11007 11008 11008 11009 11008 11007 11007 11007 11007 11006 11006 11004 11003 11002 11000 10999
10930 10935 10939 10952 10954 10957 10959 10962 10964 10965 10965 10966 10971 10977 10980 10985 10988 10991 10993 10997 10998 11000 11001 11002 11003 11005 11006 11006 11006 11007 11007 11008 11007 11007 11008 11007 11006 11005 11004 11004 11003 11002 11001
10916 10925 10930 10939 10946 10947 10951 10955 10958 10960 10963 10963 10965 10970 10975 10978 10982 10987 10991 10992 10995 10997 10999 11000 11001 11002 11004 11005 11005 11005 11006 11006 11006 11005 11005 11005 11005 11004 11003 11003 11003 11001 11001
10910 10919 10925 10930 10935 10939 10944 10948 10952 10956 10962 10963 10962 10965 10968 10972 10976 10981 10985 10989 10991 10993 10995 10997 10999 11000 11002 11003 11003 11003 11004 11004 11004 11003 11003 11003 11003 11002 11002 11001 11000 10999 10998
10899 10909 10918 10925 10926 10931 10937 10940 10946 10953 10957 10958 10961 10962 10962 10964 10968 10975 10979 10982 10986 10988 10991 10994 10996 10998 10999 11000 11000 11000 11001 11000 11000 11000 11000 11001 11001 11000 11000 10999 10998 10997 10996
10885 10895 10902 10910 10917 10923 10928 10932 10937 10944 10950 10953 10955 10958 10960 10962 10964 10967 10973 10977 10980 10983 10987 10990 10991 10993 10996 10997 10997 10997 10997 10998 10998 10998 10998 10997 10997 10997 10997 10996 10996 10995 10993
10867 10878 10887 10896 10903 10909 10915 10923 10927 10934 10940 10944 10945 10951 10954 10959 10961 10963 10967 10971 10975 10979 10981 10984 10987 10989 10991 10992 10993 10993 10993 10993 10994 10995 10994 10994 10994 10993 10993 10993 10992 10991 10989
10849 10860 10871 10884 10890 10895 10902 10911 10917 10923 10930 10936 10941 10944 10948 10952 10956 10959 10964 10968 10970 10975 10977 10979 10981 10983 10986 10987 10988 10989 10990 10989 10990 10990 10990 10990 10989 10989 10989 10989 10988 10987 10986
10830 10842 10855 10867 10872 10880 10889 10897 10905 10911 10919 10925 10932 10938 10942 10947 10951 10955 10959 10962 10967 10970 10972 10975 10976 10977 10979 10982 10983 10983 10983 10984 10986 10986 10985 10985 10985 10984 10984 10983 10984 10983 10983
10810 10822 10834 10845 10853 10861 10874 10883 10893 10902 10909 10914 10924 10929 10934 10939 10943 10946 10951 10955 10960 10964 10968 10970 10973 10974 10975 10977 10978 10979 10978 10979 10980 10981 10981 10980 10980 10980 10979 10978 10978 10978 10978
10788 10802 10813 10824 10836 10846 10858 10867 10879 10887 10899 10907 10913 10917 10923 10931 10937 10939 10945 10949 10953 10956 10961 10966 10968 10969 10971 10972 10973 10974 10973 10974 10975 10975 10975 10975 10975 10975 10974 10973 10972 10972 10973
10763 10779 10794 10805 10818 10828 10840 10852 10863 10875 10885 10893 10900 10906 10910 10918 10923 10931 10937 10944 10948 10949 10953 10957 10963 10965 10966 10966 10966 10968 10968 10968 10970 10971 10970 10970 10970 10970 10969 10967 10966 10966 10966
10741 10757 10774 10788 10800 10811 10822 10837 10849 10860 10868 10877 10886 10894 10901 10907 10911 10918 10924 10932 10940 10944 10945 10947 10953 10958 10960 10961 10961 10962 10961 10963 10965 10966 10966 10965 10965 10964 10963 10961 10960 10961 10961
10715 10733 10753 10769 10785 10794 10805 10818 10833 10843 10853 10859 10870 10879 10888 10894 10900 10907 10913 10921 10928 10934 10938 10939 10941 10946 10951 10954 10956 10956 10956 10957 10958 10960 10962 10961 10959 10959 10957 10956 10954 10954 10954
10686 10703 10723 10744 10762 10773 10786 10800 10814 10828 10833 10841 10853 10863 10872 10881 10890 10897 10904 10910 10917 10922 10927 10929 10931 10936 10940 10944 10948 10949 10950 10951 10951 10952 10955 10955 10953 10953 10952 10949 10948 10947 10947
10654 10670 10695 10714 10734 10749 10768 10781 10795 10810 10817 10824 10836 10846 10858 10868 10877 10886 10894 10898 10905 10909 10914 10918 10923 10929 10930 10934 10939 10941 10941 10943 10944 10946 10947 10946 10946 10946 10945 10943 10941 10940 10939
10621 10644 10669 10686 10702 10722 10741 10757 10772 10791 10801 10810 10820 10831 10844 10854 10864 10872 10879 10883 10890 10895 10901 10906 10912 10916 10918 10924 10928 10931 10932 10935 10937 10939 10937 10936 10936 10936 10936 10935 10934 10932 10931